Regional Weather Roundup
Issued by NWS

Home | Current Version | Previous Version | Graphics & Text | Print | Product List | Glossary On
Versions: 1 2 3 4 5 6 7 8 9 10 11 12 13 14 15 16 17 18 19 20 21 22 23 24 25 26 27
000
ASUS45 KSLC 231110
RWRUT

UTAH REGIONAL WEATHER ROUNDUP
NATIONAL WEATHER SERVICE SALT LAKE CITY UT
500 AM MDT SAT SEP 23 2017

UTZ001>011-023>025-231200-

NORTHERN UTAH

CITY           SKY/WX    TMP DP  RH WIND       PRES   REMARKS
BRIGHAM CITY   CLEAR     39  34  84 W3        29.97F
HILL AFB       CLEAR     39  33  78 CALM      29.96R
LOGAN          MOCLDY    35  33  92 CALM      29.99S
OGDEN          CLEAR     39  36  89 NW3       29.96R
SALT LAKE CITY PTCLDY    43  39  86 N5        29.95S
TOOELE VALLEY  MOCLDY    37  34  87 SE6       29.97R WCI  33
WENDOVER       CLOUDY    41  35  79 CALM      30.00R
HEBER CITY     MOCLDY    32  32 100 CALM      29.96S
WEST JORDAN    CLEAR     37  37 100 CALM      29.97R

$$

UTZ011>015-024>027-231200-

CENTRAL/NORTHEAST UTAH

CITY           SKY/WX    TMP DP  RH WIND       PRES   REMARKS
PROVO AIRPORT  MOCLDY    41  37  86 CALM      29.96S
MOAB/CANYONLAN MOCLDY    51  28  41 CALM      29.79S
DELTA          CLOUDY    36  36 100 CALM      29.95S
PRICE          CLEAR     41  25  53 NW6       29.86F
RICHFIELD      MOCLDY    41  39  93 N6        29.95F
ROOSEVELT      PTCLDY    39  32  75 SW5       29.94S
VERNAL         CLOUDY    49  35  58 NE7       29.92S

$$

UTZ013>016-019>022-027-231200-

SOUTHERN UTAH

CITY           SKY/WX    TMP DP  RH WIND       PRES   REMARKS
BRYCE CANYON   MOCLDY    27  25  92 NW5       29.93S WCI  22
CEDAR CITY     CLEAR     36  36 100 N10       29.90F WCI  28
MILFORD        MOCLDY    38  36  92 N10       29.92F WCI  31
ST GEORGE      SUNNY     53  36  52 S6        29.82S
HANKSVILLE     CLEAR     39  32  75 CALM      29.84S
KANAB          CLEAR     39  25  56 NE5G12    29.88F
BLANDING         N/A     54  42  64 S12       29.93S

$$

REGIONAL REPORTS     COLORADO/ARIZONA

CITY           SKY/WX    TMP DP  RH WIND       PRES   REMARKS
CRAIG, CO      LGT RAIN  42  38  85 NW6       29.97R
GRAND JUNCTION LGT RAIN  58  41  53 SE18G26   29.83F
RIFLE, CO      CLOUDY    56  42  59 NW3       29.89S
MONTROSE, CO   LGT RAIN  53  46  77 N9        29.91R
CORTEZ, CO     HVY RAIN  50  45  83 S7        29.90R
PAGE, AZ       CLEAR     52  23  32 W3        29.79S
GRAND CANYON   CLEAR     25  14  63 E3        29.89S
KINGMAN, AZ    CLEAR     45  25  45 NW3       29.79R
FLAGSTAFF, AZ  CLEAR     36  29  75 CALM      29.90F

$$

REGIONAL REPORTS    NEVADA/IDAHO/WYOMING

CITY           SKY/WX    TMP DP  RH WIND       PRES   REMARKS
LAS VEGAS, NV  CLEAR     63  29  27 N14       29.78R
ELY, NY        CLOUDY    29  29 100 N8        29.98F WCI  21
ELKO, NV       FOG       30  27  88 CALM      30.01S VSB 1/2
POCATELLO, ID  CLOUDY    37  34  89 SE3       30.03S
BURLEY, ID     PTCLDY    34  31  88 CALM      30.00S
FORT BRIDGER,    N/A     35  35 100 CALM      30.01S FOG
EVANSTON, WY   CLOUDY    34  31  88 N6        29.97F WCI  29
ROCK SPRINGS,  CLOUDY    35  33  92 SE7       30.00S WCI  29
KEMMERER, WY     N/A     32  32 100 CALM      30.00S

$$




USA.gov is the U.S. government's official web portal to all federal, state and local government web resources and services.